TimeEDT,TemperatureF,Dew PointF,Humidity,Sea Level PressureIn,VisibilityMPH,Wind Direction,Wind SpeedMPH,Gust SpeedMPH,PrecipitationIn,Events,Conditions,WindDirDegrees,DateUTC
12:56 AM,62.1,61.0,96,30.05,10.0,Calm,Calm,-,N/A,,Scattered Clouds,0,2013-05-01 04:56:00
1:56 AM,64.0,62.1,93,30.03,7.0,NE,4.6,-,N/A,,Partly Cloudy,40,2013-05-01 05:56:00
2:47 AM,66.2,64.4,94,30.02,9.0,NE,8.1,-,N/A,,Mostly Cloudy,40,2013-05-01 06:47:00
2:56 AM,66.0,64.0,93,30.02,9.0,NE,9.2,-,N/A,,Mostly Cloudy,40,2013-05-01 06:56:00
3:56 AM,66.0,64.9,96,30.01,10.0,NNE,9.2,-,N/A,,Scattered Clouds,30,2013-05-01 07:56:00
4:49 AM,66.2,64.4,94,30.00,8.0,NE,6.9,-,N/A,,Mostly Cloudy,50,2013-05-01 08:49:00
4:56 AM,66.0,64.9,96,30.00,7.0,NE,6.9,-,N/A,,Mostly Cloudy,40,2013-05-01 08:56:00
5:56 AM,66.9,64.9,93,30.01,7.0,ENE,9.2,-,N/A,,Overcast,70,2013-05-01 09:56:00
6:56 AM,68.0,64.9,90,30.04,7.0,ENE,8.1,-,N/A,,Overcast,60,2013-05-01 10:56:00
7:56 AM,68.0,64.9,90,30.04,10.0,ENE,10.4,-,N/A,,Overcast,60,2013-05-01 11:56:00
8:27 AM,69.8,66.2,88,30.06,10.0,NE,12.7,-,N/A,,Mostly Cloudy,50,2013-05-01 12:27:00
8:56 AM,72.0,66.0,81,30.06,10.0,NE,13.8,-,N/A,,Mostly Cloudy,50,2013-05-01 12:56:00
9:22 AM,71.6,66.2,83,30.07,10.0,ENE,11.5,-,N/A,,Mostly Cloudy,70,2013-05-01 13:22:00
9:56 AM,75.0,66.0,73,30.06,10.0,ENE,13.8,-,N/A,,Mostly Cloudy,60,2013-05-01 13:56:00
10:56 AM,75.0,66.0,73,30.06,10.0,NE,18.4,-,N/A,,Mostly Cloudy,40,2013-05-01 14:56:00
11:56 AM,73.0,64.9,76,30.09,10.0,NE,18.4,24.2,N/A,,Overcast,40,2013-05-01 15:56:00
12:56 PM,73.0,64.9,76,30.08,9.0,NE,18.4,-,N/A,,Overcast,50,2013-05-01 16:56:00
1:56 PM,72.0,64.0,76,30.07,10.0,NE,19.6,25.3,N/A,,Overcast,50,2013-05-01 17:56:00
2:56 PM,71.1,63.0,75,30.07,9.0,NNE,20.7,27.6,N/A,,Overcast,30,2013-05-01 18:56:00
3:56 PM,69.1,62.1,78,30.07,10.0,ENE,19.6,25.3,N/A,,Overcast,60,2013-05-01 19:56:00
4:56 PM,69.1,61.0,75,30.07,10.0,NE,18.4,26.5,N/A,,Overcast,50,2013-05-01 20:56:00
5:56 PM,66.9,60.1,79,30.07,10.0,NE,20.7,27.6,N/A,,Overcast,40,2013-05-01 21:56:00
6:56 PM,66.9,60.1,79,30.07,10.0,NE,17.3,24.2,N/A,,Overcast,50,2013-05-01 22:56:00
7:56 PM,66.0,60.1,81,30.06,10.0,NE,16.1,23.0,N/A,,Overcast,40,2013-05-01 23:56:00
8:56 PM,66.0,61.0,84,30.07,10.0,NNE,10.4,19.6,0.00,Rain,Light Rain,30,2013-05-02 00:56:00
9:56 PM,66.9,61.0,81,30.07,10.0,NE,15.0,20.7,0.00,,Overcast,40,2013-05-02 01:56:00
10:56 PM,66.9,62.1,84,30.07,10.0,NE,13.8,-,0.00,,Overcast,40,2013-05-02 02:56:00
11:56 PM,66.9,63.0,87,30.06,10.0,NE,12.7,-,0.00,,Overcast,40,2013-05-02 03:56:00